Palm Springs, CA

6:58 AM PDT on September 26, 2017 (GMT -0700)
Palm Springs International

Weather History for KPSP - December, 2014

Change the Weather History Date:

Thursday, December 25, 2014

  Actual Average Record
Temperature  
Mean Temperature 58 °F 55 °F  
Max Temperature 68 °F 66 °F 86 °F (1985)
Min Temperature 47 °F 44 °F 23 °F (1953)
Degree Days  
Heating Degree Days 7 10  
Month to date heating degree days 121 233  
Since 1 July heating degree days 154 329  
Cooling Degree Days 0 0  
Month to date cooling degree days 24 0  
Year to date cooling degree days 4948 4137  
Growing Degree Days 9 (Base 50)    
Moisture  
Dew Point 18 °F    
Average Humidity 32    
Maximum Humidity 54    
Minimum Humidity 10    
Precipitation  
Precipitation 0.00 in 0.04 in 4.02 in (1940)
Month to date precipitation 0.74 0.61  
Year to date precipitation 2.75 5.47  
Since 1 July precipitation 2.00  
Snow  
Snow 0.00 in - - ()
Month to date snowfall 0.0  
Year to date snowfall 0.0  
Snow Depth 0.00 in    
Sea Level Pressure  
Sea Level Pressure 29.82 in    
Wind  
Wind Speed 7 mph (NNW)    
Max Wind Speed 26 mph    
Max Gust Speed 35 mph    
Visibility 10 miles    
Events      
T = Trace of Precipitation, MM = Missing Value Source: NWS Daily Summary

Daily Weather History Graph

Daily Weather History Graph

Search for Another Location

Airport or City:

Trip Planner

Search our weather history database for the weather conditions in past years. The results will help you decide how hot, cold, wet, or windy it might be!

Date:

Astronomy

Dec. 25, 2014 Rise Set
Actual Time 6:48 AM PST 4:43 PM PST
Civil Twilight 6:21 AM PST 5:11 PM PST
Nautical Twilight 5:50 AM PST 5:42 PM PST
Astronomical Twilight 5:19 AM PST 6:12 PM PST
Moon 9:35 AM PST (12/25) 9:10 PM PST (12/25)
Length of Visible Light 10h 50m
Length of Day
9h 54m
Waxing Crescent, 19% of the Moon is Illuminated
Dec 25
Waxing Crescent
Dec 28
First Quarter
Jan 4
Full
Jan 13
Last Quarter
Jan 20
New

Hourly Weather History & Observations

Time (PST) Temp. Dew Point Humidity Pressure Visibility Wind Dir Wind Speed Gust Speed Precip Events Conditions
12:53 AM 50.0 °F 27.0 °F 41% 29.72 in 10.0 mi Calm Calm - N/A   Clear
1:53 AM 50.0 °F 28.9 °F 44% 29.70 in 10.0 mi Variable 3.5 mph - N/A   Clear
2:53 AM 52.0 °F 26.1 °F 37% 29.70 in 10.0 mi West 6.9 mph - N/A   Clear
3:53 AM 52.0 °F 30.0 °F 43% 29.69 in 10.0 mi Variable 4.6 mph - N/A   Clear
4:53 AM 51.1 °F 34.0 °F 52% 29.71 in 10.0 mi SE 5.8 mph - N/A   Clear
5:53 AM 53.1 °F 35.1 °F 50% 29.73 in 10.0 mi Calm Calm - N/A   Clear
6:53 AM 52.0 °F 35.1 °F 53% 29.76 in 10.0 mi East 5.8 mph - N/A   Clear
7:53 AM 53.1 °F 33.1 °F 47% 29.81 in 10.0 mi West 3.5 mph - N/A   Clear
8:53 AM 57.9 °F 34.0 °F 41% 29.84 in 10.0 mi Variable 3.5 mph - N/A   Scattered Clouds
9:53 AM 64.0 °F 18.0 °F 17% 29.85 in 10.0 mi North 8.1 mph 19.6 mph N/A   Partly Cloudy
10:53 AM 66.0 °F 19.0 °F 17% 29.84 in 10.0 mi NNE 18.4 mph 24.2 mph N/A   Scattered Clouds
11:53 AM 66.9 °F 17.1 °F 15% 29.82 in 10.0 mi NW 12.7 mph - N/A   Scattered Clouds
12:53 PM 68.0 °F 12.0 °F 11% 29.80 in 10.0 mi East 13.8 mph 21.9 mph N/A   Clear
1:12 PM 66.9 °F 10.0 °F 11% 29.79 in 10.0 mi NNE 21.9 mph 29.9 mph N/A   Clear
1:53 PM 66.0 °F 8.1 °F 10% 29.80 in 10.0 mi NNE 19.6 mph - N/A   Clear
2:53 PM 64.9 °F 8.1 °F 11% 29.81 in 10.0 mi NNE 11.5 mph - N/A   Clear
3:53 PM 64.0 °F 7.0 °F 11% 29.81 in 10.0 mi NNE 16.1 mph - N/A   Clear
4:53 PM 61.0 °F 3.0 °F 10% 29.83 in 10.0 mi North 15.0 mph 20.7 mph N/A   Clear
5:53 PM 60.1 °F 3.9 °F 11% 29.86 in 10.0 mi NNW 8.1 mph - N/A   Clear
6:53 PM 59.0 °F 6.1 °F 12% 29.89 in 10.0 mi Variable 3.5 mph - N/A   Clear
7:53 PM 57.0 °F 8.1 °F 14% 29.93 in 10.0 mi Variable 3.5 mph - N/A   Clear
8:53 PM 57.0 °F 10.0 °F 15% 29.94 in 10.0 mi WSW 6.9 mph - N/A   Clear
9:53 PM 55.9 °F 9.0 °F 15% 29.95 in 10.0 mi South 3.5 mph - N/A   Clear
10:53 PM 52.0 °F 12.9 °F 21% 29.96 in 10.0 mi SSW 8.1 mph - N/A   Clear
11:53 PM 52.0 °F 10.9 °F 19% 29.95 in 10.0 mi SW 8.1 mph - N/A   Clear